Theta_e
297 298 297 299 298 298 297 297 298 298 300 300 297 296 299 301 293 289 297 302 299 294 293 294 295 296 296 297 298 298 300 301 302 302 302 302 301 302 302 302 302 302 302 303 305 308 309 312 313 315 317 319 319 321 322 323 324 324 327 327 326 327 328 326 326 326 326 327 325 325 327 329 328 328 328 328 328 327 327 326 325 322 322 322 321 322 322
291 294 297 298 297 297 296 296 296 298 299 298 298 297 299 300 299 301 300 296 291 292 293 294 295 297 297 297 298 299 298 298 299 300 299 299 299 299 300 300 301 302 301 302 304 305 306 307 308 310 310 311 314 315 319 323 323 324 327 326 326 325 324 323 323 324 325 325 324 324 325 326 326 326 326 327 326 325 324 324 324 324 324 323 320 321 321
291 292 295 297 297 297 294 294 295 296 297 297 297 296 296 298 298 297 296 294 289 293 296 295 296 297 297 296 296 297 297 297 297 297 297 298 298 298 298 299 300 301 301 301 301 302 302 304 305 306 307 308 309 311 312 315 318 323 324 323 323 322 321 322 324 324 324 324 323 323 322 322 323 323 324 326 326 326 324 324 324 323 324 323 323 321 320
288 292 294 294 297 296 294 292 291 292 294 293 293 291 293 296 294 296 295 293 289 292 295 295 296 296 295 293 294 295 295 296 296 295 295 295 296 297 297 298 299 300 299 300 300 300 300 301 303 304 306 307 307 307 308 310 313 316 318 320 320 321 322 322 323 323 323 322 321 321 322 320 318 319 320 322 324 325 324 324 324 325 324 323 323 322 322
288 290 292 293 294 293 289 286 287 289 293 294 295 295 295 294 294 293 292 294 294 294 295 293 293 294 293 292 293 293 294 295 295 295 294 294 295 295 296 297 298 299 299 299 299 299 299 300 301 303 303 303 304 306 307 308 311 311 311 312 314 317 321 322 321 321 321 321 322 322 321 321 321 321 321 320 322 323 322 322 323 322 321 321 321 323 322
289 291 290 292 288 283 283 287 291 291 287 290 291 291 291 293 295 295 296 293 294 294 293 291 291 291 291 292 294 295 294 294 293 294 295 295 295 295 296 297 297 297 299 299 300 300 301 302 302 302 303 303 304 305 306 306 308 307 307 307 308 310 311 312 315 317 318 318 316 317 317 317 318 319 319 315 316 318 319 319 319 317 316 317 319 321 318
288 291 291 287 281 282 286 293 293 293 292 291 291 292 292 292 294 296 294 293 292 291 290 289 287 288 291 293 292 293 295 294 294 293 293 293 294 294 295 295 296 297 297 298 299 299 300 301 302 303 304 304 305 305 306 305 305 305 305 305 305 306 306 307 309 311 312 312 312 312 312 312 313 314 314 313 313 313 313 313 313 313 314 314 316 318 315
293 289 288 281 280 286 290 291 292 293 294 292 292 289 292 292 293 294 292 291 290 290 290 291 292 291 292 293 293 293 294 295 294 293 292 293 294 294 294 295 295 295 296 297 298 299 300 301 301 302 303 303 302 301 304 303 304 304 304 303 303 303 303 304 305 307 310 311 310 309 309 309 309 310 310 310 309 309 310 310 311 311 310 311 312 315 314
286 288 287 284 288 288 288 288 288 288 285 286 286 285 289 292 293 293 291 290 290 290 291 292 293 293 293 290 290 293 294 294 295 294 294 294 294 295 295 296 295 297 297 298 299 299 300 300 300 300 300 301 301 301 300 299 301 302 302 301 300 300 301 302 302 303 306 307 307 307 307 306 305 306 308 310 310 310 309 308 308 308 309 309 309 309 310
291 288 284 284 283 281 282 288 291 293 292 289 289 287 287 290 291 293 292 290 290 290 291 291 293 294 291 286 286 292 294 295 294 295 295 296 297 297 297 297 297 297 297 298 299 299 299 299 300 299 299 300 299 298 298 298 298 299 299 299 300 300 300 300 300 300 301 301 302 304 305 304 304 305 306 307 308 311 309 309 308 308 308 307 307 307 308
290 288 285 284 281 280 287 289 291 293 294 291 290 286 285 289 291 293 293 291 291 291 291 292 294 293 287 285 287 291 293 294 295 294 294 295 295 296 296 296 296 296 296 297 298 298 298 298 299 300 299 299 297 296 297 297 297 297 297 298 299 299 300 301 301 301 301 301 299 299 300 303 304 303 304 305 306 307 308 308 306 306 306 305 305 306 306
289 288 285 281 283 281 287 290 292 293 294 293 290 283 283 291 294 294 294 291 291 293 294 294 294 291 285 285 288 292 293 294 294 294 293 295 295 296 296 296 296 296 296 296 296 296 297 298 299 299 299 297 297 296 296 297 296 296 297 297 298 299 300 300 301 302 303 302 301 300 300 301 302 302 303 303 303 304 304 303 303 304 304 303 303 304 305
287 285 284 284 284 288 291 291 294 295 296 292 285 282 285 291 294 294 294 293 294 294 294 295 289 292 293 291 292 294 294 294 294 295 296 296 296 296 295 295 296 295 295 295 295 296 296 297 298 299 298 297 296 296 296 295 295 296 298 299 299 299 299 299 299 300 302 302 302 302 302 302 301 301 302 302 303 304 304 304 303 304 303 302 302 303 304
287 288 285 283 284 288 292 294 295 296 291 284 285 287 293 293 294 296 296 294 295 296 295 295 293 292 293 294 294 294 294 293 294 294 295 295 296 296 296 296 296 295 295 295 295 295 296 297 298 298 297 296 296 296 295 294 295 297 298 298 299 299 299 299 299 300 301 301 302 302 303 303 302 300 300 301 301 302 302 302 302 302 303 303 303 303 304
289 288 285 283 278 287 294 293 294 294 287 285 289 291 294 297 296 296 296 296 296 296 294 294 293 293 293 293 293 293 294 293 293 294 294 294 293 293 294 295 296 296 295 295 295 295 296 297 297 297 297 295 295 295 294 295 297 297 298 299 299 299 299 299 299 299 299 300 301 301 301 302 302 302 303 303 303 303 303 302 302 302 302 302 302 302 302
285 283 280 279 285 289 293 291 285 289 290 291 292 290 291 295 296 296 295 295 296 296 295 293 293 293 293 293 293 293 293 293 294 294 294 294 294 293 294 294 294 295 295 295 295 296 297 297 297 297 296 295 295 294 294 296 296 297 298 298 298 298 299 299 300 300 300 301 301 301 301 301 302 302 302 303 303 303 303 303 303 303 302 303 303 302 301
286 283 285 288 290 291 293 293 293 293 294 295 294 293 292 292 293 297 295 294 295 295 295 294 293 292 293 292 294 292 292 293 293 293 293 293 293 293 293 293 294 294 294 294 295 295 296 296 296 296 296 295 295 294 296 297 297 297 297 297 297 297 297 297 298 298 300 301 302 302 302 302 301 301 302 302 301 302 303 302 302 302 301 301 301 301 301
292 292 291 292 292 292 293 295 296 295 295 296 295 293 291 292 293 295 293 294 294 294 294 293 293 293 293 293 293 293 293 293 294 294 294 293 294 294 294 294 294 294 294 294 293 293 294 295 296 296 297 297 295 295 297 298 298 298 298 297 297 296 296 297 298 299 300 300 300 301 301 302 301 301 302 301 301 301 301 301 301 301 300 300 300 301 301
289 282 291 291 291 293 294 294 296 296 296 295 295 293 292 292 292 292 293 293 293 293 293 292 293 293 294 294 295 294 294 294 294 294 294 294 294 294 293 294 294 294 294 293 293 293 293 295 296 296 296 296 296 297 297 298 298 298 298 297 297 297 297 298 298 298 298 299 300 300 300 300 300 300 301 300 301 299 301 300 301 300 300 300 300 300 300
286 285 291 292 294 294 296 296 295 294 294 294 293 293 293 292 293 293 293 293 293 295 294 294 294 294 295 294 295 295 296 295 295 294 294 294 294 295 295 295 295 295 295 294 294 294 294 295 296 296 297 297 298 298 298 298 298 298 297 297 297 297 297 297 298 298 298 292 296 300 299 299 299 300 300 301 300 299 298 298 299 299 300 299 298 300 299
290 292 293 293 293 294 294 295 296 297 297 296 294 294 294 293 292 292 293 294 293 293 293 295 294 293 294 295 295 295 295 296 296 296 295 295 295 295 295 296 296 296 296 295 295 296 296 296 297 298 298 299 299 299 299 300 300 298 297 296 297 297 297 297 296 297 298 298 298 299 299 299 298 298 298 299 300 301 300 299 296 297 298 299 299 300 299
286 286 289 293 287 286 291 294 296 296 297 298 297 296 295 294 293 293 292 292 294 294 294 295 295 293 293 294 295 294 296 296 297 297 296 295 295 296 296 297 297 297 297 297 296 296 296 297 298 299 299 299 299 299 300 300 300 299 300 300 299 299 298 298 298 297 298 298 298 298 299 299 299 297 289 289 293 297 298 291 288 287 289 295 295 297 298
285 291 293 296 294 293 293 295 296 297 298 298 296 296 295 295 295 294 294 293 293 293 294 297 296 295 295 294 295 294 295 296 298 298 297 296 296 296 297 297 297 297 297 297 297 297 298 298 298 298 299 300 300 300 300 300 300 300 300 299 299 298 298 297 296 298 298 299 299 299 299 300 300 296 299 296 289 287 289 289 289 288 288 288 288 288 292
294 296 296 297 295 292 294 297 298 297 299 298 297 297 297 296 296 296 295 294 293 293 294 295 296 296 295 295 295 294 295 296 297 298 298 298 298 298 298 298 297 297 297 297 296 296 298 298 298 299 299 299 300 300 300 300 300 300 299 298 298 297 298 298 297 298 299 298 299 300 299 300 299 299 299 299 296 291 289 290 289 288 288 288 288 288 288
292 297 298 298 297 296 298 298 298 298 298 298 297 297 297 298 297 298 296 295 295 294 294 294 296 296 296 296 296 295 295 295 297 296 297 296 297 297 298 298 298 298 298 298 298 299 299 299 299 298 298 299 299 300 300 300 300 299 299 298 298 298 298 298 298 297 297 298 299 299 299 299 300 300 299 299 298 297 293 289 289 289 288 288 288 288 288
298 298 299 298 297 296 297 296 296 297 297 298 297 297 298 298 298 298 297 297 297 296 295 295 295 295 296 294 294 295 294 295 294 295 297 296 297 297 297 297 298 298 299 299 299 299 299 299 299 299 299 299 300 301 301 300 300 299 299 298 298 298 298 298 298 298 299 299 298 299 299 300 299 299 299 300 299 300 298 296 293 290 288 288 288 289 288
298 298 297 294 293 294 296 294 291 296 297 297 297 297 298 298 296 297 298 298 298 298 297 296 295 296 296 295 294 295 294 294 295 295 296 297 296 297 298 299 298 298 298 298 298 298 297 298 298 298 299 300 301 301 300 300 300 299 298 299 299 292 286 291 299 298 298 298 298 298 299 299 300 298 300 299 299 298 298 298 299 298 300 298 291 288 292
297 297 297 292 290 292 293 295 296 297 297 297 296 296 296 297 297 296 296 296 297 297 297 297 296 295 294 295 294 293 294 293 293 294 295 296 297 298 299 299 298 298 298 298 298 298 297 298 298 298 298 300 301 301 301 300 300 299 299 298 298 298 298 297 298 298 298 298 298 298 298 298 299 298 297 297 297 297 297 297 298 298 297 299 300 291 286
296 297 298 297 297 297 297 297 296 295 296 297 297 296 296 295 294 294 294 295 296 296 295 296 296 296 295 295 295 293 292 293 293 294 295 296 297 298 298 298 298 298 298 297 297 298 298 298 297 297 298 300 301 301 301 300 299 299 298 298 298 298 298 298 298 298 298 298 297 296 292 295 297 298 298 297 296 298 298 298 296 298 298 299 300 300 294
296 297 297 297 297 297 296 295 294 295 295 296 295 295 295 294 293 293 294 294 295 294 295 296 295 295 295 294 294 294 293 293 293 294 295 296 297 298 298 298 298 297 298 297 297 297 297 297 297 297 298 300 300 301 301 300 299 299 299 299 298 298 299 299 298 298 297 297 296 291 295 297 298 298 297 298 297 296 296 295 294 294 298 297 294 296 295
296 297 297 297 296 296 295 294 294 295 295 295 295 294 294 294 293 293 293 294 295 294 295 295 295 295 295 294 294 294 294 294 294 294 295 296 297 298 298 298 295 293 295 296 297 297 297 297 298 298 300 300 301 301 301 300 300 299 299 299 299 289 286 287 291 298 297 297 295 296 297 296 298 296 294 295 295 296 297 295 295 295 295 297 296 296 295
295 295 295 295 295 294 294 294 293 294 294 296 295 294 294 293 292 292 293 293 294 295 295 295 294 294 294 294 294 294 294 291 292 294 294 295 295 290 283 287 295 293 295 295 295 295 296 297 297 299 300 301 301 301 300 300 299 299 299 295 298 298 293 287 294 294 295 294 295 296 294 297 296 297 295 295 295 293 295 295 294 294 293 294 294 296 294
292 292 292 292 293 293 293 293 293 294 295 295 295 296 296 295 295 294 294 294 295 295 295 295 295 295 294 294 291 290 287 286 289 290 291 290 287 285 284 290 295 295 295 295 295 295 295 295 296 299 300 300 301 301 301 301 300 299 299 298 298 297 293 293 292 296 295 295 295 296 295 297 296 297 296 295 296 293 295 294 293 294 294 295 296 295 293
293 292 293 294 294 292 292 293 294 293 294 294 296 296 296 296 295 295 295 295 295 295 294 295 295 295 293 288 286 285 285 287 289 290 287 286 286 286 286 290 294 294 294 294 295 294 294 295 297 298 299 300 301 301 301 301 300 299 299 299 297 297 297 297 296 296 296 294 295 293 295 296 296 295 296 295 296 294 294 293 293 294 294 295 296 295 291
296 296 296 296 296 296 295 294 294 294 293 293 294 295 296 296 296 295 296 295 295 295 296 295 293 289 287 286 285 286 285 287 288 287 288 287 287 285 288 291 292 292 292 293 293 293 295 297 298 298 299 300 300 301 301 301 301 300 300 299 297 297 298 297 296 296 295 295 295 296 295 295 295 293 294 295 296 296 294 294 294 294 294 293 293 295 294
296 296 296 296 296 296 296 295 295 295 294 294 293 291 295 296 296 296 295 295 296 296 296 294 290 289 287 285 286 285 285 287 286 286 286 286 285 285 287 288 290 291 291 292 294 294 295 296 291 291 298 299 300 301 301 301 301 300 300 299 297 297 297 296 296 295 296 297 295 295 294 292 293 294 294 295 296 295 295 295 293 294 294 293 294 293 293
296 296 296 296 296 296 296 295 296 295 295 295 295 295 295 295 295 296 297 297 296 296 296 297 295 293 289 287 288 287 287 287 290 289 288 286 285 285 287 287 288 288 290 290 293 296 295 295 289 285 292 297 298 300 300 291 301 300 300 299 298 298 297 297 297 296 295 295 294 295 293 293 295 296 295 296 295 294 294 294 295 294 294 294 294 294 293
296 296 296 296 296 296 296 296 296 296 296 295 295 295 296 296 296 296 296 296 296 297 297 297 296 295 295 292 288 286 285 286 285 284 283 282 284 286 286 286 288 289 290 291 295 295 295 294 284 290 295 297 299 301 296 288 290 298 300 298 297 297 296 296 295 295 294 295 293 295 294 294 294 295 294 295 295 295 295 294 293 294 292 294 293 293 293
295 296 296 296 297 296 296 296 297 296 296 295 295 296 296 296 297 296 296 296 297 297 297 296 296 296 295 294 294 294 292 289 286 284 284 284 286 286 289 291 292 291 292 293 296 295 295 293 296 296 297 298 299 301 294 286 287 298 299 299 299 297 297 297 295 295 295 296 295 295 294 294 295 295 294 294 294 293 292 295 293 293 295 294 294 294 294
295 295 295 295 295 296 296 296 296 296 297 297 296 296 296 296 296 296 296 296 297 297 297 296 296 294 294 294 294 294 295 296 295 289 287 287 287 287 290 293 295 296 296 291 293 295 292 287 293 298 299 299 299 299 298 292 290 297 299 298 298 297 297 296 297 296 296 296 293 291 294 294 294 294 293 294 295 294 295 295 294 294 294 295 295 295 293
295 295 295 295 295 295 296 296 296 296 296 297 297 297 297 297 296 296 295 295 296 297 297 296 295 294 295 295 295 295 296 296 296 295 295 293 292 290 291 291 295 296 297 296 297 295 291 291 293 296 298 298 300 295 298 291 296 298 299 298 298 297 296 297 296 296 295 295 293 295 294 296 293 294 293 295 295 294 295 294 294 294 295 294 295 295 294
295 296 295 295 296 295 295 296 296 296 297 297 297 297 298 298 297 296 296 296 296 297 296 296 293 296 296 296 296 295 296 296 296 296 296 294 293 293 292 293 296 296 291 290 289 291 292 292 292 291 298 298 298 289 290 297 297 298 298 298 297 296 297 296 295 296 297 296 296 296 294 296 295 295 294 295 294 294 294 294 295 295 295 294 294 295 295
295 295 295 295 295 296 296 296 295 295 296 297 297 297 297 298 297 297 296 296 296 296 296 296 296 292 294 295 295 295 295 296 296 296 296 297 297 297 294 295 296 297 285 292 295 297 296 296 295 295 293 294 295 285 286 297 298 298 298 297 296 296 296 296 296 296 296 296 296 296 296 295 295 295 294 294 293 294 295 295 294 294 295 295 295 294 295
296 296 296 296 296 296 296 296 296 296 296 297 297 298 298 298 297 297 296 296 296 296 296 296 296 296 295 296 295 294 295 295 295 295 295 295 296 297 298 296 296 293 285 292 294 296 297 298 298 293 287 287 284 285 294 296 298 297 297 296 295 296 296 297 296 297 296 295 295 296 296 293 293 295 294 294 294 294 293 294 295 295 294 295 295 295 295
296 296 296 296 296 296 296 296 296 296 296 297 297 297 297 297 297 297 297 296 296 295 295 296 296 295 296 296 296 296 296 296 297 296 294 293 292 294 297 293 295 294 290 288 294 295 297 298 293 287 287 285 285 285 294 295 294 294 295 294 295 296 296 297 296 296 295 296 295 295 294 295 295 295 295 294 293 294 293 294 295 295 294 294 294 294 294
296 296 297 293 296 296 297 297 297 297 297 296 296 296 297 297 297 297 297 297 296 296 297 297 296 296 296 296 296 297 297 297 297 298 297 297 295 296 296 293 295 292 288 286 294 295 296 288 286 286 285 284 284 288 292 292 291 293 292 292 294 293 296 296 296 296 296 295 296 295 294 295 296 296 296 296 294 294 293 293 293 295 295 295 294 294 294
296 296 297 297 297 297 297 297 297 296 296 296 295 295 296 297 297 297 297 297 297 297 297 298 297 297 298 298 297 296 296 297 298 299 299 298 297 296 292 289 288 285 287 293 294 295 294 294 288 285 285 284 284 291 292 291 290 291 291 292 293 294 294 296 297 297 297 297 295 294 292 294 294 296 296 294 294 294 294 292 294 294 294 294 293 292 292
296 296 297 296 296 297 297 297 296 296 295 295 296 296 297 297 297 297 298 298 297 297 298 298 297 298 298 298 298 298 298 297 293 297 299 298 299 298 298 297 295 288 288 288 288 288 284 285 286 284 284 284 288 293 293 292 291 291 291 292 293 294 294 295 296 297 297 296 295 296 296 295 294 295 295 294 293 294 295 294 293 293 293 293 293 293 294
296 296 296 297 297 296 296 296 295 294 295 296 295 296 297 297 297 297 297 297 297 297 297 297 297 298 298 296 298 299 299 298 297 295 299 299 298 298 298 292 285 285 289 293 295 295 288 284 284 284 283 284 293 295 295 294 292 291 292 293 293 294 294 294 295 297 297 297 296 296 296 295 295 295 293 293 293 294 293 293 293 293 293 293 293 292 292
296 296 296 295 296 295 295 295 294 295 296 296 296 296 297 297 295 295 296 297 296 294 296 296 296 296 298 298 298 298 299 298 298 299 298 298 298 299 297 297 295 290 289 294 296 295 287 282 284 283 285 290 294 295 295 295 294 293 292 292 292 293 294 292 291 292 295 296 296 296 296 296 296 294 293 293 293 293 293 292 293 290 287 290 292 292 292
295 295 295 294 295 296 296 296 295 296 296 297 297 297 296 295 295 294 296 296 296 294 295 295 296 297 297 297 297 298 298 298 297 295 297 298 298 294 292 294 295 291 293 291 293 294 294 294 293 289 288 291 294 295 294 294 293 292 290 291 292 292 293 293 293 294 296 296 297 297 296 296 295 295 293 294 293 293 293 293 292 292 292 291 291 291 292
296 296 297 296 296 297 296 296 296 297 296 296 296 296 296 296 295 295 295 292 295 295 295 294 294 296 297 297 296 297 298 298 297 297 295 295 297 297 295 289 296 293 293 294 295 296 295 293 290 288 289 292 293 293 290 289 291 291 291 290 290 292 292 293 293 294 295 295 296 296 296 296 295 295 293 294 293 294 292 292 292 292 292 292 291 291 291
Wind_Speed
8 5 4 4 7 8 7 8 7 8 7 6 3 4 4 7 1 1 3 9 12 8 7 6 7 6 6 6 7 7 6 6 7 7 9 11 11 11 11 12 11 11 10 8 9 10 10 10 9 8 7 7 6 4 6 4 6 1 4 8 10 10 10 10 10 10 10 8 6 5 2 7 8 8 8 7 7 7 6 5 3 5 6 6 6 6 6
6 8 5 2 6 8 9 10 9 7 7 8 7 6 7 7 6 6 9 14 12 7 6 5 6 6 5 6 5 6 8 8 8 8 10 10 10 10 10 10 10 10 10 9 9 9 10 10 10 9 9 8 9 8 6 6 7 7 3 4 7 9 11 11 10 10 10 9 8 7 6 7 7 8 8 8 8 7 7 6 4 3 3 3 5 6 6
4 3 3 0 5 8 12 10 9 7 3 6 7 5 6 3 7 8 9 11 8 5 5 6 6 6 6 7 8 8 8 8 8 9 10 10 10 10 10 10 11 11 11 11 10 10 10 10 10 9 9 9 10 10 9 9 8 5 9 10 10 9 11 12 11 12 12 12 12 11 10 8 8 9 9 7 7 8 7 6 5 4 3 3 2 2 4
4 3 4 4 6 10 13 11 12 11 7 4 5 4 5 4 4 5 6 5 3 4 5 6 6 7 8 9 7 7 8 8 8 9 9 9 10 10 10 10 10 10 11 11 12 11 11 11 11 10 10 11 11 10 9 9 6 7 11 10 9 10 13 12 12 12 11 10 9 8 9 9 8 7 7 7 7 7 6 6 5 5 5 5 4 4 3
5 4 2 4 4 2 3 8 9 10 8 7 2 4 7 6 4 4 2 4 6 7 6 7 7 8 9 9 7 7 8 9 9 9 9 10 10 10 10 10 10 10 10 11 11 10 10 10 11 11 10 11 11 10 10 7 7 11 11 10 10 10 10 11 11 10 11 12 10 8 7 6 6 6 7 7 5 5 5 4 5 6 6 6 5 3 6
6 9 5 3 2 7 2 3 6 6 5 9 6 4 5 7 6 4 6 5 8 8 6 7 7 8 8 8 9 9 7 7 9 10 10 10 10 10 11 10 10 9 9 9 10 11 11 11 11 11 10 10 8 8 8 8 9 10 10 11 11 10 10 10 9 9 9 9 10 8 7 7 7 6 7 7 5 5 5 4 5 7 7 8 5 7 8
5 7 8 5 5 2 3 1 9 6 4 7 6 5 5 5 5 4 8 9 7 8 8 9 8 8 11 12 12 11 10 9 9 10 10 10 11 12 11 12 11 10 11 11 10 9 9 10 9 9 10 9 9 10 8 9 10 11 10 12 12 11 11 9 9 9 10 10 10 9 8 8 8 8 7 7 6 5 5 6 5 5 6 6 6 7 8
4 5 7 4 3 3 4 3 6 7 2 7 4 2 6 6 5 4 6 7 9 10 11 11 10 10 12 13 13 12 11 10 9 10 10 10 11 12 11 11 11 11 10 11 11 10 8 9 10 11 10 9 11 11 9 11 10 11 12 14 12 11 11 11 10 9 10 11 10 9 9 9 9 8 8 7 7 6 6 6 5 6 7 6 6 8 9
2 1 5 7 9 8 7 3 6 7 4 6 5 2 3 5 4 1 7 9 9 10 10 11 10 10 9 12 11 12 11 11 10 11 12 11 11 11 10 10 9 8 9 11 10 10 10 10 11 11 10 11 12 14 14 12 13 13 13 14 12 12 11 11 11 11 10 10 10 10 10 10 9 8 7 7 7 7 8 8 7 6 6 6 6 8 9
2 4 7 5 5 3 5 5 6 5 3 3 3 3 0 3 4 1 6 9 10 10 10 10 9 6 5 8 7 8 9 10 11 11 11 11 11 11 10 9 8 9 9 9 10 10 12 13 12 9 10 11 12 13 13 12 12 13 13 13 11 11 11 10 10 10 10 10 10 9 9 9 9 8 8 7 7 5 7 7 7 6 6 6 7 8 8
2 2 3 2 3 4 4 9 10 8 4 3 3 3 2 3 2 3 6 8 9 10 10 9 4 3 3 5 4 5 8 10 10 11 10 9 9 9 9 9 9 9 9 10 10 11 12 14 12 11 11 11 12 13 12 12 12 13 13 12 11 11 10 10 11 10 10 10 9 9 9 9 8 8 7 6 5 5 6 6 6 5 5 5 6 6 7
2 2 3 5 5 4 8 10 10 7 2 5 3 3 3 5 2 3 6 8 9 9 8 2 3 1 6 9 7 7 7 9 9 10 10 9 8 9 8 9 8 8 8 9 11 11 12 11 11 10 10 11 13 12 11 11 13 13 12 11 10 10 9 9 9 9 9 10 9 8 8 8 8 7 6 5 5 5 5 5 5 5 5 6 6 5 5
6 8 7 6 4 3 10 12 10 6 3 3 3 2 4 6 5 4 5 8 8 7 4 4 2 5 6 11 12 9 9 10 9 9 9 9 8 9 8 8 8 8 9 9 10 10 9 9 8 9 9 11 12 11 11 12 13 11 10 9 10 10 10 10 10 10 9 9 9 8 7 7 7 6 5 5 5 5 5 4 5 5 5 5 5 5 4
4 3 6 7 6 2 11 12 6 5 3 1 3 4 6 7 3 3 6 8 8 5 3 4 7 10 13 13 11 10 9 9 9 9 9 9 9 7 7 7 7 8 8 10 11 11 10 9 8 8 9 12 11 11 12 13 10 8 9 9 8 9 10 10 10 10 9 9 8 7 7 6 6 6 5 5 5 5 5 5 5 4 3 3 4 4 3
1 2 6 3 3 5 15 16 2 10 2 5 4 6 5 3 2 3 5 7 5 2 6 9 13 14 13 12 11 11 9 9 9 9 9 7 8 8 8 8 7 5 7 8 9 9 8 9 8 8 10 12 11 11 12 10 8 8 8 8 8 8 9 9 8 8 8 9 7 6 6 6 6 5 4 4 4 4 4 4 4 4 4 3 2 3 2
3 5 5 4 3 6 10 10 5 6 3 5 5 4 4 6 4 5 6 5 4 6 11 12 12 12 13 12 11 10 9 9 9 7 6 6 7 7 7 7 6 6 8 8 8 8 7 8 8 8 8 10 11 11 11 7 7 8 8 8 8 8 8 8 8 7 7 7 6 5 5 4 4 5 4 3 3 3 3 2 2 2 2 1 1 1 1
4 5 5 3 2 5 6 7 5 5 4 4 4 5 6 6 7 5 7 8 8 9 11 11 12 11 11 12 11 10 9 9 8 7 6 7 7 7 7 7 8 8 8 9 9 10 9 9 8 8 8 9 10 10 7 6 6 6 6 7 7 7 7 7 7 7 7 7 7 6 5 5 5 4 5 4 3 3 2 3 2 2 2 2 1 1 1
15 13 9 6 6 6 8 7 7 8 8 7 6 7 7 7 8 7 8 9 10 9 9 11 10 11 11 10 9 9 9 9 8 6 7 8 8 8 8 9 8 9 9 10 10 11 11 10 9 8 8 8 10 8 6 6 6 6 6 7 7 7 7 7 8 7 6 6 7 7 6 5 5 5 5 5 4 4 3 3 3 3 3 2 2 2 1
1 6 7 10 9 8 8 9 10 10 10 9 9 9 9 8 9 10 11 11 11 11 9 9 10 10 9 10 9 8 7 8 8 7 8 8 8 8 9 8 7 8 8 9 9 10 9 8 8 7 8 8 7 6 6 6 7 7 7 7 7 7 7 7 8 8 8 7 5 6 6 5 5 5 5 4 4 4 4 4 3 3 3 3 3 3 2
7 8 9 11 11 10 10 10 10 11 11 11 11 9 10 11 11 11 11 11 11 7 7 6 8 9 9 9 9 9 9 8 8 7 8 8 8 7 7 7 8 8 8 8 8 8 8 7 6 6 6 6 6 6 6 6 6 7 8 8 7 7 8 7 6 6 6 5 6 6 6 7 6 5 5 5 5 5 5 5 5 4 4 4 4 4 4
10 11 10 11 12 12 12 12 12 11 11 10 11 11 12 12 13 13 12 11 10 8 8 7 5 6 6 6 7 8 8 8 8 8 7 7 7 6 6 6 6 6 7 7 7 7 7 6 6 6 6 5 5 5 4 5 5 6 6 5 5 6 5 5 5 5 5 6 5 5 5 5 7 7 7 6 5 5 7 6 6 5 5 4 4 5 5
6 5 6 3 3 6 8 11 11 12 12 12 12 12 13 13 12 11 12 10 9 8 6 6 6 5 5 6 5 7 6 7 7 7 7 6 6 6 5 5 6 6 6 7 7 7 6 5 6 6 7 6 6 5 5 5 5 5 4 4 5 5 4 4 3 3 4 4 4 4 3 3 4 5 5 5 6 6 4 7 6 6 6 5 6 6 5
6 7 7 8 11 10 9 9 9 10 10 11 12 12 12 11 10 11 12 11 8 7 5 4 5 5 4 4 5 4 4 5 5 6 6 6 6 6 6 7 7 6 6 6 6 6 6 6 6 6 6 6 6 6 7 7 7 6 5 4 4 4 5 6 5 3 3 3 3 3 3 2 2 3 5 5 4 3 6 4 4 5 4 3 4 6 5
9 8 8 7 8 10 9 9 8 9 8 9 11 11 10 10 10 9 9 9 10 7 5 3 4 4 3 2 1 1 1 1 4 4 4 4 5 5 5 6 6 7 7 6 6 6 5 5 5 5 5 5 6 6 6 6 6 6 6 5 4 4 4 4 2 3 3 3 3 3 3 3 3 2 2 5 5 2 0 5 6 6 6 6 6 5 5
8 7 8 9 11 10 8 8 8 8 7 8 8 9 9 9 8 8 9 8 8 8 7 4 2 2 2 3 5 4 3 2 3 1 2 3 3 2 3 5 5 5 5 4 5 5 4 4 5 4 5 4 4 5 4 5 6 6 6 6 5 4 4 3 3 2 2 4 3 3 2 3 2 3 2 2 2 6 4 3 6 7 3 0 1 2 3
9 8 9 9 9 8 8 8 9 8 7 7 7 7 6 6 6 8 8 8 7 7 7 7 6 4 3 4 2 2 3 3 3 3 4 4 5 4 3 3 3 3 3 3 2 3 3 4 3 3 4 4 4 4 4 4 5 6 5 6 6 6 5 4 3 3 3 3 3 3 3 3 3 3 3 3 3 3 4 8 6 3 5 5 2 4 6
10 9 10 9 7 6 3 5 6 4 5 7 8 8 7 7 3 5 7 7 8 8 7 7 6 5 4 3 4 3 3 1 0 3 5 5 5 5 3 3 2 2 1 1 1 2 2 1 2 1 3 4 3 2 3 5 5 5 5 5 4 7 1 8 3 3 3 3 3 3 3 3 3 3 3 3 3 3 4 4 4 3 4 5 6 4 4
7 5 3 4 8 6 8 8 8 6 5 5 6 7 7 6 6 7 8 8 7 7 7 7 7 6 5 4 3 4 3 1 1 1 2 5 5 3 3 3 2 2 1 0 1 2 3 1 1 0 1 2 2 2 3 3 3 3 4 3 3 3 2 0 3 3 3 3 4 5 4 4 3 3 4 4 4 3 3 3 2 3 3 4 3 6 3
6 6 5 5 8 7 6 7 6 6 6 5 4 5 5 6 6 5 6 6 6 6 6 5 3 2 2 2 1 3 3 3 3 2 1 1 2 3 3 3 2 1 2 2 2 1 3 2 2 2 1 0 1 1 1 2 0 2 2 3 3 2 2 3 2 2 2 3 5 5 4 3 3 3 3 3 3 3 4 4 3 3 4 4 5 3 7
5 5 5 6 6 6 6 6 5 5 4 4 4 4 4 4 4 4 4 5 5 4 4 5 3 3 2 1 1 2 2 3 3 3 3 2 1 1 2 2 2 3 3 4 3 2 3 3 4 4 2 2 2 1 0 0 1 2 3 3 4 5 4 3 0 0 1 2 3 6 5 2 2 2 3 3 3 3 3 3 1 1 3 4 4 5 6
5 5 5 5 5 3 3 4 4 4 3 3 3 3 4 1 3 2 2 3 3 2 4 3 2 2 1 1 2 2 2 2 1 1 1 0 1 0 1 2 3 4 5 5 4 4 5 5 5 5 4 3 3 2 1 2 1 1 1 1 4 6 3 5 5 4 0 1 2 3 2 1 2 2 2 2 1 2 2 2 2 2 2 4 5 6 7
5 5 5 4 3 3 3 2 2 3 2 3 3 3 3 2 2 1 1 2 2 2 4 3 2 1 1 2 2 1 2 1 0 2 3 2 1 2 2 2 4 6 6 5 4 5 6 7 7 6 5 5 4 3 3 2 1 2 2 2 2 3 6 5 4 1 2 0 1 1 1 1 1 1 2 2 2 2 2 2 2 2 2 3 6 7 7
3 4 4 3 2 1 1 2 3 4 4 4 4 3 2 2 1 2 1 1 2 3 4 4 2 2 3 2 2 2 1 0 0 1 1 1 1 2 2 2 5 6 7 6 6 6 6 7 7 6 6 5 6 5 4 3 3 2 1 2 1 3 1 0 7 2 2 2 0 3 0 1 1 2 3 2 3 1 2 2 2 3 3 5 6 7 6
4 4 5 3 3 3 2 1 1 2 2 2 2 3 4 4 3 2 1 2 2 3 4 4 3 4 3 3 3 2 2 1 3 3 3 3 3 2 2 3 5 6 6 7 7 6 6 6 6 6 6 6 6 6 5 5 3 2 1 1 1 2 1 4 4 3 0 0 1 1 2 2 2 2 3 2 2 3 2 2 2 3 2 3 4 6 6
2 2 2 2 2 1 2 1 1 1 2 3 3 3 3 3 3 2 1 2 2 3 3 3 3 4 4 3 3 2 4 4 3 1 2 2 2 2 2 5 6 6 6 7 7 7 7 6 6 6 6 6 7 7 6 6 5 3 1 1 2 1 1 1 1 0 0 0 2 1 2 3 2 1 1 2 4 3 2 3 3 3 2 2 3 4 5
2 3 3 3 4 3 2 1 2 2 1 1 2 1 1 2 2 2 3 3 2 2 3 3 3 3 2 3 3 5 6 5 6 4 3 4 2 1 2 4 6 6 6 6 6 6 6 6 5 1 4 6 8 8 8 6 5 4 2 2 1 1 1 0 1 2 0 0 0 2 3 2 1 3 4 4 3 3 3 3 2 3 2 2 2 2 3
5 5 5 5 5 4 3 2 2 2 2 2 3 3 3 2 2 2 1 2 2 3 4 5 5 5 4 5 3 3 3 4 3 2 1 2 1 2 2 3 4 6 6 5 5 3 5 4 6 8 7 7 7 8 7 1 6 4 3 3 2 2 2 3 1 1 2 1 1 4 5 6 5 4 3 3 3 3 3 4 4 3 2 2 3 2 4
5 5 4 4 3 3 3 3 2 1 1 1 2 1 1 2 2 2 3 2 3 3 4 5 6 6 6 4 3 4 6 4 5 4 3 3 3 2 3 4 5 5 4 3 1 2 2 5 7 5 7 8 8 9 7 9 6 6 4 3 3 2 2 1 2 2 1 3 2 4 4 3 3 4 3 3 3 3 3 3 3 3 3 2 2 3 3
4 3 3 2 1 1 1 1 0 0 1 2 2 1 1 1 1 2 3 3 3 3 4 5 5 6 6 7 6 6 4 5 5 4 4 4 3 4 5 4 4 3 4 3 3 4 2 4 5 6 7 8 9 9 8 8 6 6 5 3 3 3 2 2 2 2 1 2 4 4 4 3 3 3 3 3 3 4 4 4 3 3 3 3 2 2 3
2 2 3 2 1 2 2 1 1 1 1 2 2 2 1 3 2 2 2 2 3 4 3 3 5 6 7 7 7 6 4 3 4 4 3 3 3 3 6 8 8 6 2 2 4 4 3 5 4 5 6 8 8 8 6 7 7 7 6 4 4 4 3 2 3 3 3 2 4 2 3 4 3 4 4 4 4 3 5 5 4 4 3 3 3 4 4
2 1 1 1 1 1 2 2 1 1 1 1 2 2 1 3 2 3 3 3 3 4 3 3 4 5 6 6 6 5 3 2 3 3 3 4 5 4 3 3 3 1 3 2 2 1 4 5 5 5 6 7 8 7 5 8 7 8 6 5 5 4 4 4 3 3 3 3 3 4 4 4 4 4 4 4 4 4 4 3 3 3 3 3 3 3 4
2 2 2 2 1 1 1 1 1 1 0 0 1 1 1 1 2 2 2 2 3 3 4 4 3 4 3 3 4 4 5 4 4 4 5 5 5 4 3 2 2 1 7 4 3 2 4 6 6 6 6 7 6 6 2 5 7 7 6 5 5 5 4 4 4 3 2 2 3 2 3 4 4 4 4 4 4 4 3 3 3 3 3 3 2 3 3
2 2 2 1 1 1 1 1 2 2 2 2 2 2 1 1 2 2 2 2 3 4 5 4 3 4 4 5 5 5 5 5 5 5 5 6 7 6 5 3 1 4 6 3 2 3 3 3 5 6 5 4 2 8 5 5 7 7 6 5 5 5 5 5 4 4 3 3 4 3 4 3 4 3 3 3 3 4 4 3 2 2 2 2 2 2 2
1 1 1 1 1 1 1 2 2 3 4 2 2 2 3 3 3 3 3 4 4 4 5 5 5 5 5 4 4 5 5 4 4 4 5 5 5 7 7 5 2 6 9 4 4 3 2 2 3 5 9 6 6 6 4 5 5 4 5 5 5 6 6 5 5 4 4 3 3 4 4 3 2 2 4 2 2 2 2 2 3 3 2 2 2 2 1
1 1 2 2 3 3 3 3 3 4 4 3 3 3 4 4 4 4 5 5 5 5 5 6 5 5 4 4 4 4 4 4 4 4 5 4 4 2 6 5 4 4 7 7 5 4 3 3 5 8 6 6 7 6 5 4 4 4 4 5 5 6 6 6 6 6 5 4 3 3 3 4 4 3 3 1 1 2 2 3 3 3 3 3 2 2 2
1 1 1 2 3 3 3 3 3 3 4 4 4 4 4 4 4 4 4 5 5 5 5 5 6 6 5 5 4 4 5 5 4 5 5 5 5 3 3 2 2 2 6 7 4 4 2 8 9 8 7 7 7 5 4 4 4 4 5 5 6 6 6 6 6 6 6 5 4 3 4 4 4 4 4 3 4 3 1 0 3 4 3 3 3 2 2
1 1 1 2 2 2 2 2 2 3 4 4 4 3 2 2 3 3 3 3 4 4 4 4 4 4 4 4 4 4 5 5 4 4 4 4 3 2 4 3 3 6 5 5 4 4 1 6 7 8 9 9 9 6 5 4 4 5 5 7 7 6 6 6 6 7 7 6 5 4 2 2 3 3 4 3 3 3 3 4 3 3 2 3 3 3 3
1 2 2 2 3 2 2 2 3 3 4 3 2 1 1 2 3 3 3 3 4 5 5 4 4 4 4 4 5 5 5 6 5 6 2 2 1 1 2 2 3 7 7 5 5 6 2 1 6 7 8 9 7 7 6 6 6 7 8 9 8 7 6 6 6 7 7 7 6 6 5 5 4 4 4 5 3 3 3 3 4 3 2 3 3 2 3
1 2 1 1 1 2 2 2 3 3 2 1 2 2 1 2 3 4 3 3 4 4 4 4 5 5 5 5 5 5 4 4 5 4 3 3 3 3 1 3 6 5 5 4 5 4 8 8 7 7 7 8 7 8 8 8 8 8 8 8 7 5 5 5 6 6 7 7 7 7 6 5 5 4 4 3 3 3 5 4 3 3 3 3 2 3 2
1 2 3 1 2 2 3 4 4 3 2 3 3 2 2 3 4 3 2 3 2 3 3 3 3 4 4 4 4 4 4 4 4 5 5 4 4 3 2 3 0 4 3 3 3 2 8 8 8 7 7 7 8 8 7 7 6 6 6 6 6 5 6 5 3 3 6 7 8 7 6 6 5 4 4 4 3 3 3 3 3 5 9 1 2 2 3
1 2 2 2 2 2 2 3 3 4 4 3 3 3 3 4 4 3 2 2 3 3 4 3 3 2 3 3 3 3 3 4 3 3 5 4 3 2 2 2 1 2 3 4 4 4 2 4 3 6 7 7 7 7 7 6 6 5 5 4 6 7 5 5 6 6 6 6 7 7 7 7 7 6 4 3 4 3 4 5 4 3 4 4 3 3 3
2 1 1 1 2 2 1 1 1 1 1 2 2 3 3 4 4 4 1 1 4 3 3 4 4 1 2 2 2 3 2 3 4 3 3 4 4 4 4 4 4 4 4 4 4 4 2 1 5 6 6 4 4 4 4 2 5 4 4 6 5 6 6 5 5 4 4 5 6 6 7 7 7 5 5 4 4 6 4 4 4 3 4 4 3 3 3
Wind_Direction
23 16 64 73 79 72 76 65 48 43 31 40 85 33 13 319 288 287 194 141 116 93 72 65 64 62 54 54 50 44 41 47 50 53 54 54 50 45 42 39 35 25 34 29 14 19 28 33 40 39 45 70 68 73 107 108 127 66 144 156 148 143 139 132 126 133 134 133 116 97 114 133 137 138 137 129 128 120 121 125 145 152 161 162 170 166 155
32 8 345 107 103 98 76 57 48 41 47 51 50 47 20 20 43 64 99 81 77 68 79 75 74 71 71 63 60 58 53 46 47 55 57 56 56 54 51 49 47 45 41 42 37 35 37 37 41 42 43 36 43 45 54 103 116 125 128 115 124 129 122 115 127 141 144 138 123 125 123 117 111 111 110 109 109 111 114 123 130 125 130 150 163 161 157
104 90 274 320 130 109 85 63 48 35 60 71 52 57 33 72 75 77 99 100 86 69 75 88 88 86 87 73 63 64 55 51 51 54 57 55 54 53 52 52 52 52 51 48 47 43 45 45 50 51 51 48 48 42 41 40 35 77 125 125 119 116 119 125 126 130 133 128 127 123 110 100 92 97 97 91 96 95 92 90 85 85 90 94 56 122 148
146 136 137 149 110 104 91 63 40 31 30 44 27 32 3 350 102 120 130 134 114 112 106 93 94 88 73 67 59 59 55 55 58 57 54 51 48 50 55 57 56 51 50 48 43 38 41 50 52 56 60 61 53 55 45 44 38 57 73 70 84 109 117 123 126 129 124 113 103 105 110 109 106 97 83 67 65 67 74 73 72 80 78 62 36 19 42
159 158 198 150 203 169 173 37 4 354 14 8 80 63 33 27 348 166 191 99 105 129 127 111 90 85 76 62 54 58 61 58 57 58 56 56 52 49 52 56 57 56 56 53 49 45 46 48 52 51 60 64 61 54 46 29 41 55 55 65 66 61 82 104 114 114 119 115 101 98 95 95 78 66 83 93 85 81 71 70 78 77 77 75 60 48 71
140 164 154 147 222 211 90 21 345 341 5 356 11 38 15 16 7 41 47 104 123 128 127 114 104 84 69 71 59 55 55 65 64 62 61 59 55 52 51 53 58 61 65 64 62 60 59 61 65 68 57 64 56 44 55 44 42 57 62 57 58 57 54 64 77 94 96 98 99 101 94 84 87 92 82 72 71 78 94 89 87 92 87 84 67 81 86
138 157 171 182 213 85 157 61 27 9 356 7 360 45 29 29 41 78 98 109 107 98 99 100 86 78 79 70 64 55 55 62 70 72 66 60 60 58 55 56 59 64 70 72 63 54 58 62 65 61 63 60 63 59 49 60 54 58 56 58 53 50 49 48 61 65 77 83 88 91 86 82 86 92 95 100 91 78 78 77 70 74 73 73 82 98 98
129 165 196 184 77 115 162 202 34 356 270 1 311 133 47 34 40 73 109 106 114 117 116 113 109 104 93 75 60 56 55 56 65 70 67 64 63 64 57 55 52 41 36 54 60 51 56 65 66 64 63 67 71 70 59 58 58 57 60 62 55 50 45 42 49 61 77 84 80 76 81 86 88 88 88 86 87 83 82 75 74 81 77 76 83 85 78
191 95 62 76 126 112 55 55 16 19 358 343 355 355 55 19 354 25 130 122 123 125 127 126 123 116 97 73 55 48 56 62 66 71 73 72 69 68 64 58 49 28 34 40 36 42 50 57 62 60 58 61 67 65 60 58 63 65 66 68 67 63 55 48 43 44 52 69 82 87 85 83 80 79 82 88 90 92 90 85 77 75 87 83 78 79 84
281 142 128 145 187 119 63 38 18 5 332 301 278 249 11 45 11 111 132 132 137 133 134 141 154 180 79 64 53 45 58 67 73 71 73 73 73 71 71 65 50 41 40 40 32 40 53 51 49 48 49 55 60 61 56 52 55 56 59 61 61 62 63 62 58 51 43 45 53 59 76 84 84 82 81 77 69 60 85 89 85 73 74 77 70 66 69
200 193 154 69 71 69 11 356 348 349 330 250 187 240 73 30 81 127 146 136 146 145 155 167 197 225 122 108 103 84 80 76 74 75 63 58 53 51 46 43 42 41 43 47 43 39 45 52 45 49 56 57 61 63 58 55 55 53 49 49 48 49 51 58 62 60 58 54 53 51 55 62 67 68 65 68 74 78 85 86 73 62 59 68 72 74 72
54 76 81 82 47 43 356 345 345 345 329 195 206 236 91 30 94 153 151 151 153 165 158 162 309 191 145 147 136 134 112 98 89 81 81 71 61 55 51 45 46 41 37 52 52 46 40 41 47 49 54 61 63 64 63 60 59 55 50 48 48 49 50 51 58 64 66 67 64 63 63 62 61 63 64 67 70 79 78 84 92 97 90 71 71 74 83
97 91 99 109 103 50 353 345 339 344 321 221 251 23 32 343 324 146 159 154 163 162 174 331 26 28 86 125 131 132 122 111 98 89 81 73 65 63 51 41 31 44 43 50 54 53 48 39 45 43 53 65 63 62 64 63 58 56 52 51 51 51 53 53 52 52 53 57 63 64 66 66 65 59 54 57 63 71 84 84 88 84 91 112 109 102 94
53 78 91 95 88 30 342 343 341 359 259 265 44 12 320 302 299 146 157 155 155 176 358 71 92 106 108 123 129 128 118 107 105 99 95 90 81 69 61 46 40 46 47 49 51 48 41 41 50 55 58 66 63 60 61 60 56 56 59 58 59 61 61 59 55 51 49 47 49 50 49 60 70 71 64 60 59 60 60 67 72 74 68 86 96 92 88
152 94 99 119 60 35 3 338 279 14 8 28 327 326 339 4 77 117 145 152 149 76 95 111 117 117 120 124 125 122 117 113 109 107 100 92 93 92 81 68 52 57 69 63 58 55 38 31 31 53 65 69 66 61 61 57 54 53 55 57 57 58 60 62 60 57 52 47 46 41 42 44 52 60 66 69 73 79 93 101 97 94 91 85 98 102 88
47 66 58 56 27 328 355 8 38 352 354 318 318 297 21 36 61 103 82 59 69 110 122 124 117 119 121 122 121 118 113 113 112 107 97 91 90 88 82 81 80 76 80 81 83 78 75 63 46 37 59 74 74 71 65 55 55 54 55 53 53 53 54 56 58 57 57 57 53 55 48 50 56 57 54 61 64 59 52 68 93 95 92 95 109 110 110
42 70 79 70 39 12 19 20 23 22 19 13 39 71 49 51 29 43 88 83 92 111 118 116 117 114 114 120 123 121 122 120 118 115 111 100 95 92 89 84 80 76 75 79 79 73 65 69 73 74 67 76 79 77 74 73 71 68 62 58 60 61 57 54 52 55 52 46 42 37 40 37 38 44 48 32 53 51 53 58 51 70 76 58 55 45 45
92 76 78 87 71 54 43 44 36 37 48 57 80 81 80 58 51 43 84 93 94 90 96 108 107 111 119 123 127 128 128 127 125 122 114 106 98 94 91 86 81 82 81 75 71 68 64 63 65 59 61 67 70 69 67 65 63 63 63 61 59 58 59 54 47 46 48 55 51 41 30 35 34 34 25 34 30 33 34 39 42 43 37 33 32 32 30
176 72 69 70 69 68 66 66 59 55 52 59 66 73 69 72 71 70 70 80 86 91 96 99 111 120 134 129 130 130 130 125 128 124 117 116 114 106 99 97 93 83 82 79 74 72 69 61 63 66 68 68 69 63 56 54 54 55 53 52 54 51 47 51 48 43 38 24 29 43 33 31 42 36 30 27 37 30 27 25 31 29 27 23 14 24 8
85 104 92 86 78 71 60 57 62 62 68 74 74 75 80 81 77 75 78 79 79 60 70 92 109 120 128 126 126 127 126 131 131 127 121 118 117 114 116 114 103 99 93 91 87 84 80 73 64 62 62 64 67 71 70 66 62 55 48 42 48 50 47 44 38 37 44 18 7 47 36 32 29 31 35 33 36 34 20 14 2 12 12 15 12 8 1
99 102 107 102 89 74 69 69 65 68 78 89 95 96 92 89 85 81 74 74 72 63 47 33 53 83 89 102 111 107 109 113 115 115 117 117 117 125 123 118 116 107 108 105 104 96 94 97 96 87 81 75 68 67 72 75 81 81 82 84 74 71 62 50 48 39 40 41 38 34 54 56 51 31 15 7 13 42 42 12 11 353 352 5 15 3 350
102 104 122 181 102 88 83 75 75 79 82 91 99 102 102 102 100 98 95 86 82 73 51 35 34 46 39 34 66 105 105 105 107 114 119 122 123 121 118 113 107 104 101 103 105 104 99 95 89 87 87 88 86 79 70 71 73 77 76 81 82 78 72 68 61 56 47 57 54 54 52 71 98 93 55 29 10 360 55 64 37 6 345 360 1 346 337
106 98 97 89 94 98 92 95 93 89 89 92 94 99 106 113 115 119 114 110 99 87 67 26 47 56 45 32 17 52 73 105 118 122 127 129 135 126 126 123 117 110 108 107 101 91 93 97 95 91 84 82 80 72 66 53 44 42 48 56 65 77 65 53 9 14 61 52 51 58 58 54 67 119 130 97 81 51 27 26 29 42 34 11 9 3 344
85 99 102 100 109 106 108 102 100 95 95 92 95 102 111 122 128 129 122 124 124 121 112 66 28 36 62 36 39 94 33 136 123 130 134 127 128 134 130 120 121 125 131 132 124 115 106 99 91 89 84 78 72 72 65 62 62 56 44 45 58 59 58 58 42 27 63 52 43 47 48 48 49 30 106 135 111 40 34 81 25 25 22 15 3 359 354
97 95 92 98 100 102 103 101 90 90 85 87 95 103 109 120 124 125 127 132 137 138 133 123 90 40 31 26 10 11 349 349 349 37 146 144 131 151 126 122 121 109 99 107 128 141 133 118 112 108 103 93 90 83 71 61 52 49 49 52 59 56 57 74 91 62 15 55 34 53 47 61 62 60 47 22 85 139 167 190 168 165 145 119 230 292 260
100 107 105 102 101 110 121 108 95 92 99 104 104 103 103 89 101 129 131 135 137 143 145 145 147 141 137 125 101 43 13 9 10 301 229 198 190 190 169 151 118 99 89 81 78 118 134 130 122 113 104 105 94 72 64 58 49 52 51 58 48 26 28 21 46 39 52 52 26 26 32 36 37 39 45 37 41 6 127 152 161 164 181 152 121 235 197
96 107 120 112 103 94 61 93 103 79 86 91 99 101 105 118 153 118 118 124 133 141 146 142 136 138 125 103 95 67 66 49 245 252 253 239 222 217 193 173 154 105 93 69 95 50 22 136 146 122 85 73 77 65 48 47 38 38 37 31 72 121 98 319 26 46 35 31 23 17 13 31 44 39 43 41 27 41 33 27 42 62 105 141 149 77 12
89 73 2 149 136 124 121 115 119 111 99 100 109 111 112 121 122 124 128 133 138 140 140 146 146 149 138 130 127 118 127 99 34 344 250 233 227 228 203 176 159 194 226 321 47 158 218 219 209 104 64 54 56 33 39 44 39 41 32 35 39 14 63 212 15 34 22 29 21 18 354 24 30 41 31 25 38 59 60 30 41 78 63 26 35 141 178
66 52 74 75 101 117 121 126 134 128 118 116 114 111 116 119 116 118 126 137 143 149 145 138 122 107 82 108 77 89 91 89 71 74 85 104 190 202 177 156 163 250 265 276 272 204 231 241 240 237 216 259 54 32 37 69 45 42 24 8 6 33 5 23 15 24 24 17 32 13 334 323 8 32 44 43 22 31 49 60 59 31 32 30 3 85 180
65 69 87 102 114 120 131 141 139 139 140 138 136 130 120 122 124 116 123 142 165 163 143 143 151 135 123 106 103 70 77 74 70 67 74 88 78 129 162 177 195 235 253 260 249 242 262 253 250 254 232 215 254 240 75 351 20 33 39 25 18 2 352 20 90 136 348 359 17 257 255 351 33 18 29 45 57 64 68 69 48 47 47 55 34 30 25
85 78 84 105 116 127 125 132 147 143 149 150 160 155 146 132 93 108 141 153 177 174 166 174 168 148 160 68 100 84 67 58 47 52 325 137 196 163 310 257 244 246 247 246 249 247 251 256 259 262 264 243 235 244 277 286 357 97 227 350 110 91 20 317 324 317 72 6 1 349 13 312 59 53 40 59 59 64 79 83 71 58 59 58 51 34 24
113 108 110 116 128 143 135 144 167 163 163 185 197 202 162 170 184 125 133 203 203 195 187 197 186 186 79 98 117 105 75 51 351 285 280 271 52 57 29 319 293 299 298 284 273 273 269 263 255 251 250 250 250 245 241 267 275 295 23 351 339 145 137 247 230 170 298 228 279 287 13 354 61 89 130 112 105 101 87 81 75 75 74 75 62 44 23
133 147 147 141 151 166 161 156 194 195 205 197 216 241 226 190 207 215 207 195 196 197 204 213 194 132 121 111 91 89 70 11 286 277 280 280 315 278 259 272 275 281 283 282 281 275 268 262 260 257 245 237 237 240 242 241 257 260 281 339 54 71 84 222 343 321 163 253 274 329 31 111 152 143 97 93 91 90 86 84 91 87 79 75 65 53 33
359 359 7 9 346 334 5 36 251 207 203 235 252 223 225 214 217 231 222 230 233 210 205 204 189 122 110 106 118 116 136 223 223 196 210 235 246 228 230 245 259 265 269 271 265 258 253 249 250 247 238 235 232 234 236 233 242 273 290 219 340 334 245 137 193 262 355 255 90 163 223 150 167 137 140 124 93 77 80 88 87 90 97 85 80 68 57
12 6 17 20 47 36 30 346 295 240 240 239 225 214 214 212 204 198 67 256 238 226 198 173 100 90 96 113 134 153 174 230 291 80 179 207 219 206 245 252 253 252 254 253 250 248 244 246 244 238 237 237 230 220 224 233 231 238 184 298 326 340 64 291 315 11 311 36 279 221 155 163 137 126 158 146 126 126 106 86 90 91 91 87 76 66 71
66 97 99 91 72 53 44 34 24 3 11 50 55 52 188 160 179 178 185 217 219 198 169 135 124 134 137 163 186 180 210 228 248 262 248 231 225 229 244 257 263 261 258 258 246 246 242 239 219 318 268 234 226 217 217 222 222 223 199 256 171 211 145 137 145 163 294 289 111 155 130 12 347 154 158 148 138 123 114 121 115 107 94 83 70 60 54
68 79 81 78 66 50 54 55 52 47 55 80 105 117 126 145 186 162 185 179 187 193 181 166 175 189 203 210 216 204 214 228 238 233 197 168 184 205 230 239 246 259 269 274 261 244 238 242 134 159 221 232 228 222 193 182 233 200 185 215 217 216 200 195 251 12 115 130 145 152 164 197 180 158 178 145 130 127 130 125 108 94 88 79 77 71 66
68 61 64 59 58 59 62 59 48 54 68 87 93 83 131 167 178 199 202 196 198 190 195 199 206 209 204 169 183 211 230 232 228 218 161 179 208 213 228 230 245 234 241 265 307 238 260 104 132 195 220 223 216 213 176 157 260 275 210 221 209 205 210 214 148 183 205 112 140 147 181 168 170 164 156 140 132 135 126 113 102 103 101 96 87 77 71
86 86 78 67 53 44 358 113 143 19 332 316 303 191 108 7 254 223 208 198 184 184 199 215 217 221 219 223 229 218 206 205 189 170 187 194 208 215 249 261 272 287 296 317 281 275 170 154 221 213 214 214 211 209 148 155 212 241 233 202 215 215 166 210 151 138 12 138 157 152 166 171 171 156 155 141 128 108 71 65 107 110 99 92 87 83 78
72 59 50 8 14 9 326 336 334 347 356 346 324 303 236 240 241 234 203 191 164 185 212 217 221 232 232 235 242 251 250 207 177 178 191 196 196 232 255 249 240 247 241 234 256 265 119 114 225 235 216 208 207 202 164 156 186 231 223 214 200 220 197 189 194 182 157 181 99 268 176 162 167 161 159 161 150 136 137 149 141 117 116 112 101 89 82
34 16 18 357 31 5 5 355 7 17 37 28 35 23 344 270 260 248 224 214 186 191 213 230 239 244 246 244 243 254 260 235 225 220 190 191 214 230 266 305 97 150 178 210 289 268 157 201 232 229 218 210 200 215 186 142 192 220 224 213 210 210 199 202 201 195 177 169 185 177 157 164 156 183 165 168 143 141 134 129 128 124 111 102 92 90 84
10 330 298 264 245 348 348 1 340 261 251 355 38 346 19 346 286 276 262 230 221 221 233 232 250 282 289 273 264 259 252 245 226 218 205 228 248 286 305 350 66 67 98 110 158 205 204 204 219 241 238 205 190 102 41 172 201 221 225 211 216 210 217 192 200 204 200 187 184 192 153 178 174 162 167 168 156 153 142 138 129 122 108 104 99 91 88
6 346 346 319 284 232 255 282 285 315 289 286 279 281 295 283 274 272 263 259 254 253 250 256 197 208 239 246 252 259 261 256 248 232 224 228 236 244 259 314 336 124 157 216 226 231 209 206 204 204 216 253 112 120 180 215 211 217 221 218 217 219 217 215 211 195 194 190 184 184 203 201 172 169 179 179 163 165 166 160 152 141 144 126 116 105 90
345 320 329 334 21 36 287 271 270 268 279 290 286 274 257 258 264 274 274 271 267 268 274 264 252 247 246 246 254 264 267 254 246 243 254 254 223 215 227 240 241 139 172 215 226 250 229 193 215 130 142 140 119 163 191 216 226 230 233 241 221 213 221 213 219 213 199 194 196 189 180 190 240 186 190 184 191 176 175 175 162 161 160 153 137 127 116
56 35 7 358 329 290 282 289 294 302 307 303 278 257 254 254 255 262 271 274 281 282 270 269 264 251 243 241 252 268 290 304 294 280 265 268 279 252 166 193 181 173 179 215 237 236 224 202 119 126 154 150 155 172 203 206 220 238 253 248 237 225 218 221 219 218 208 199 199 198 179 190 200 195 210 184 252 181 174 189 185 181 173 185 158 166 166
119 99 34 296 299 321 342 324 319 299 288 280 267 239 232 245 250 259 264 275 277 275 277 272 263 255 249 248 253 266 270 267 260 264 271 286 289 341 104 225 181 110 132 176 237 240 209 121 138 163 156 169 159 174 214 206 217 228 243 254 250 235 226 224 218 218 210 208 196 189 185 200 192 200 195 185 187 211 169 197 160 189 184 182 189 196 179
346 318 305 327 332 344 317 294 292 278 272 265 262 262 222 221 248 262 270 265 270 281 277 271 260 253 240 243 259 268 274 276 267 235 233 248 245 236 141 145 116 118 167 211 230 236 318 150 167 168 171 169 178 199 198 199 199 218 237 248 246 240 230 227 220 219 211 210 199 190 179 211 210 199 182 193 180 204 164 186 218 200 189 180 169 189 217
328 321 349 355 339 347 292 249 256 269 275 287 300 267 240 260 265 278 269 259 255 256 262 263 255 238 238 247 255 267 279 281 284 276 204 239 264 232 224 221 169 180 200 239 260 265 269 143 151 176 178 169 187 207 200 200 206 213 224 230 234 235 231 224 220 219 215 207 188 198 192 196 202 208 184 200 194 195 185 188 204 205 195 195 209 208 202
310 334 336 298 307 311 321 311 276 260 273 320 272 269 260 268 277 270 263 251 254 264 264 264 264 265 253 256 269 276 263 267 273 289 342 307 290 281 283 134 133 159 203 239 232 225 174 171 161 170 173 195 211 211 213 209 210 221 226 230 228 228 233 232 229 222 215 211 203 203 200 202 204 201 193 201 198 188 190 198 202 203 209 207 207 209 208
312 278 269 327 337 337 348 315 308 333 326 297 293 297 278 275 276 280 267 264 271 282 278 269 259 252 256 256 237 247 257 256 253 265 278 281 277 273 268 281 133 154 230 279 234 210 123 145 156 161 176 205 219 223 222 226 223 222 230 229 232 236 231 235 240 259 240 218 213 206 207 210 209 196 202 201 201 189 184 194 203 86 55 28 212 212 215
287 293 332 1 315 1 343 334 347 339 323 327 311 308 288 273 287 296 289 303 280 269 284 291 279 289 288 266 262 266 263 255 262 280 277 276 280 275 283 290 182 213 214 229 235 239 183 188 183 172 193 215 222 221 226 224 228 222 221 235 225 236 219 190 215 205 212 213 212 208 210 214 218 204 203 210 196 202 196 193 201 180 190 207 209 209 206
293 330 323 328 331 343 337 35 6 343 336 326 325 313 293 288 285 278 231 139 273 292 300 309 307 358 319 304 294 287 287 293 283 245 241 267 276 276 161 189 241 180 197 218 215 218 235 143 136 173 202 211 218 218 199 188 228 236 230 226 231 229 227 214 196 198 191 199 215 219 213 217 218 212 213 213 200 199 202 199 203 202 192 197 189 192 196